owner,sensor,date,latitude,longitude,vertical_datum,wind_speed,wind_to_direction,wind_speed_of_gust,qcFlag 
TABS,ioos:station:wmo:42043:1,2008-07-01T00:00:00Z,28.9818,-94.9186,4.0,1.874726647,208.3422986,2.7,'11111222,11111222,11111222' 
TABS,ioos:station:wmo:42043:1,2008-07-01T00:30:00Z,28.9818,-94.9186,4.0,1.584960567,246.1843845,2.35,'11111222,11111222,11111222' 
TABS,ioos:station:wmo:42043:1,2008-07-01T01:00:00Z,28.9818,-94.9186,4.0,2.170829335,218.4538298,3.2,'11111222,11111222,11111222' 
TABS,ioos:station:wmo:42043:1,2008-07-01T01:30:00Z,28.9818,-94.9186,4.0,1.945893111,207.8821088,3.08,'11111222,11111222,11111222' 
TABS,ioos:station:wmo:42043:1,2008-07-01T02:00:00Z,28.9818,-94.9186,4.0,2.359343129,221.3916448,3.04,'11111222,11111222,11111222' 
TABS,ioos:station:wmo:42043:1,2008-07-01T02:30:00Z,28.9818,-94.9186,4.0,2.764000724,203.2259656,4.02,'11111222,11111222,11111222' 
TABS,ioos:station:wmo:42043:1,2008-07-01T03:00:00Z,28.9818,-94.9186,4.0,2.229708501,203.8060983,3.23,'11111222,11111222,11111222' 
TABS,ioos:station:wmo:42043:1,2008-07-01T03:30:00Z,28.9818,-94.9186,4.0,2.683374741,207.0426522,3.74,'11111222,11111222,11111222' 
TABS,ioos:station:wmo:42043:1,2008-07-01T04:00:00Z,28.9818,-94.9186,4.0,2.80303407,222.3975491,3.7,'11111222,11111222,11111222' 
TABS,ioos:station:wmo:42043:1,2008-07-01T04:30:00Z,28.9818,-94.9186,4.0,2.35229675,212.6768206,3.26,'11111222,11111222,11111222' 
TABS,ioos:station:wmo:42043:1,2008-07-01T05:00:00Z,28.9818,-94.9186,4.0,1.527939789,226.5912418,2.33,'11111222,11111222,11111222' 
TABS,ioos:station:wmo:42043:1,2008-07-01T05:30:00Z,28.9818,-94.9186,4.0,1.765672676,260.2176158,2.53,'11111222,11111222,11111222' 
TABS,ioos:station:wmo:42043:1,2008-07-01T06:00:00Z,28.9818,-94.9186,4.0,2.568267899,289.5637379,3.31,'11111222,11111222,11111222' 
TABS,ioos:station:wmo:42043:1,2008-07-01T06:30:00Z,28.9818,-94.9186,4.0,5.369487871,6.952730751,6.97,'11111222,11111222,11111222' 
TABS,ioos:station:wmo:42043:1,2008-07-01T07:00:00Z,28.9818,-94.9186,4.0,2.606856344,50.44737094,3.98,'11111222,11111222,11111222' 
TABS,ioos:station:wmo:42043:1,2008-07-01T07:30:00Z,28.9818,-94.9186,4.0,2.484673017,337.7702204,3.19,'11111222,11111222,11111222' 
TABS,ioos:station:wmo:42043:1,2008-07-01T08:00:00Z,28.9818,-94.9186,4.0,4.048913434,352.0498177,5.14,'11111222,11111222,11111222' 
TABS,ioos:station:wmo:42043:1,2008-07-01T08:30:00Z,28.9818,-94.9186,4.0,4.007193532,3.433411874,5.15,'11111222,11111222,11111222' 
TABS,ioos:station:wmo:42043:1,2008-07-01T09:00:00Z,28.9818,-94.9186,4.0,4.082560471,355.5042205,5.35,'11111222,11111222,11111222' 
TABS,ioos:station:wmo:42043:1,2008-07-01T09:30:00Z,28.9818,-94.9186,4.0,2.459857719,354.8686363,3.17,'11111222,11111222,11111222' 
TABS,ioos:station:wmo:42043:1,2008-07-01T10:00:00Z,28.9818,-94.9186,4.0,2.69786953,353.4016315,3.68,'11111222,11111222,11111222' 
TABS,ioos:station:wmo:42043:1,2008-07-01T10:30:00Z,28.9818,-94.9186,4.0,2.240178564,7.695823267,3.31,'11111222,11111222,11111222' 
TABS,ioos:station:wmo:42043:1,2008-07-01T11:00:00Z,28.9818,-94.9186,4.0,2.763656998,351.0487398,3.58,'11111222,11111222,11111222' 
TABS,ioos:station:wmo:42043:1,2008-07-01T11:30:00Z,28.9818,-94.9186,4.0,2.667208278,8.190631764,3.62,'11111222,11111222,11111222' 
TABS,ioos:station:wmo:42043:1,2008-07-01T12:00:00Z,28.9818,-94.9186,4.0,1.937059627,28.02001317,2.89,'11111222,11111222,11111222' 
TABS,ioos:station:wmo:42043:1,2008-07-01T12:30:00Z,28.9818,-94.9186,4.0,2.008083664,33.21496336,2.66,'11111222,11111222,11111222' 
TABS,ioos:station:wmo:42043:1,2008-07-01T13:00:00Z,28.9818,-94.9186,4.0,2.444933537,48.81375023,3.35,'11111222,11111222,11111222' 
TABS,ioos:station:wmo:42043:1,2008-07-01T13:30:00Z,28.9818,-94.9186,4.0,2.404100663,52.6054461,3.54,'11111222,11111222,11111222' 
TABS,ioos:station:wmo:42043:1,2008-07-01T14:00:00Z,28.9818,-94.9186,4.0,2.795084972,47.17442334,3.51,'11111222,11111222,11111222' 
TABS,ioos:station:wmo:42043:1,2008-07-01T14:30:00Z,28.9818,-94.9186,4.0,2.494473892,74.18042213,3.96,'11111222,11111222,11111222' 
TABS,ioos:station:wmo:42043:1,2008-07-01T15:00:00Z,28.9818,-94.9186,4.0,1.587104281,95.42362683,2.33,'11111222,11111222,11111222' 
TABS,ioos:station:wmo:42043:1,2008-07-01T15:30:00Z,28.9818,-94.9186,4.0,1.735194514,63.28692116,2.51,'11111222,11111222,11111222' 
TABS,ioos:station:wmo:42043:1,2008-07-01T16:00:00Z,28.9818,-94.9186,4.0,2.47535856,38.76795328,3.3,'11111222,11111222,11111222' 
TABS,ioos:station:wmo:42043:1,2008-07-01T16:30:00Z,28.9818,-94.9186,4.0,2.776220452,48.21188656,3.73,'11111222,11111222,11111222' 
TABS,ioos:station:wmo:42043:1,2008-07-01T17:00:00Z,28.9818,-94.9186,4.0,3.59601168,72.52203129,4.65,'11111222,11111222,11111222' 
TABS,ioos:station:wmo:42043:1,2008-07-01T17:30:00Z,28.9818,-94.9186,4.0,4.806880485,69.41568048,5.84,'11111222,11111222,11111222' 
TABS,ioos:station:wmo:42043:1,2008-07-01T18:00:00Z,28.9818,-94.9186,4.0,5.171711516,67.84848489,6.9,'11111222,11111222,11111222' 
TABS,ioos:station:wmo:42043:1,2008-07-01T18:30:00Z,28.9818,-94.9186,4.0,5.357098095,77.49400198,6.73,'11111222,11111222,11111222' 
TABS,ioos:station:wmo:42043:1,2008-07-01T19:00:00Z,28.9818,-94.9186,4.0,5.006755436,87.02288658,6.29,'11111222,11111222,11111222' 
TABS,ioos:station:wmo:42043:1,2008-07-01T19:30:00Z,28.9818,-94.9186,4.0,6.102474908,93.66459667,7.86,'11111222,11111222,11111222' 
TABS,ioos:station:wmo:42043:1,2008-07-01T20:00:00Z,28.9818,-94.9186,4.0,6.417554051,100.5048789,8.26,'11111222,11111222,11111222' 
TABS,ioos:station:wmo:42043:1,2008-07-01T20:30:00Z,28.9818,-94.9186,4.0,6.000308325,102.415271,7.78,'11111222,11111222,11111222' 
TABS,ioos:station:wmo:42043:1,2008-07-01T21:00:00Z,28.9818,-94.9186,4.0,4.896417057,113.2143221,6.15,'11111222,11111222,11111222' 
TABS,ioos:station:wmo:42043:1,2008-07-01T21:30:00Z,28.9818,-94.9186,4.0,4.283386511,118.8990509,5.46,'11111222,11111222,11111222' 
TABS,ioos:station:wmo:42043:1,2008-07-01T22:00:00Z,28.9818,-94.9186,4.0,3.487764327,129.5324636,4.45,'11111222,11111222,11111222' 
TABS,ioos:station:wmo:42043:1,2008-07-01T22:30:00Z,28.9818,-94.9186,4.0,1.701763791,119.5781904,2.58,'11111222,11111222,11111222' 
TABS,ioos:station:wmo:42043:1,2008-07-01T23:00:00Z,28.9818,-94.9186,4.0,2.392655429,128.211357,3.33,'11111222,11111222,11111222' 
TABS,ioos:station:wmo:42043:1,2008-07-01T23:30:00Z,28.9818,-94.9186,4.0,2.529604712,131.3140941,3.24,'11111222,11111222,11111222' 
TABS,ioos:station:wmo:42043:1,2008-07-02T00:00:00Z,28.9818,-94.9186,4.0,3.351715978,135.242068,4.16,'11111222,11111222,11111222' 
TABS,ioos:station:wmo:42043:1,2008-07-02T00:30:00Z,28.9818,-94.9186,4.0,2.874334706,132.1801498,3.75,'11111222,11111222,11111222' 
TABS,ioos:station:wmo:42043:1,2008-07-02T01:00:00Z,28.9818,-94.9186,4.0,2.447386361,149.5584764,3.44,'11111222,11111222,11111222' 
TABS,ioos:station:wmo:42043:1,2008-07-02T01:30:00Z,28.9818,-94.9186,4.0,2.276927755,135.3561847,3.43,'11111222,11111222,11111222' 
TABS,ioos:station:wmo:42043:1,2008-07-02T02:00:00Z,28.9818,-94.9186,4.0,2.633097036,141.4764251,3.11,'11111222,11111222,11111222' 
TABS,ioos:station:wmo:42043:1,2008-07-02T02:30:00Z,28.9818,-94.9186,4.0,2.72398605,145.318441,4.1,'11111222,11111222,11111222' 
TABS,ioos:station:wmo:42043:1,2008-07-02T03:00:00Z,28.9818,-94.9186,4.0,2.531402773,148.5707183,3.52,'11111222,11111222,11111222' 
TABS,ioos:station:wmo:42043:1,2008-07-02T03:30:00Z,28.9818,-94.9186,4.0,2.15127869,159.8806244,3.17,'11111222,11111222,11111222' 
TABS,ioos:station:wmo:42043:1,2008-07-02T04:00:00Z,28.9818,-94.9186,4.0,2.111539723,157.4430166,3.25,'11111222,11111222,11111222' 
TABS,ioos:station:wmo:42043:1,2008-07-02T04:30:00Z,28.9818,-94.9186,4.0,2.319482701,135.6990084,3.39,'11111222,11111222,11111222' 
TABS,ioos:station:wmo:42043:1,2008-07-02T05:00:00Z,28.9818,-94.9186,4.0,1.81463495,144.6461374,2.91,'11111222,11111222,11111222' 
TABS,ioos:station:wmo:42043:1,2008-07-02T05:30:00Z,28.9818,-94.9186,4.0,1.760113633,179.3491516,2.87,'11111222,11111222,11111222' 
TABS,ioos:station:wmo:42043:1,2008-07-02T06:00:00Z,28.9818,-94.9186,4.0,2.56532649,173.734027,3.59,'11111222,11111222,11111222' 
TABS,ioos:station:wmo:42043:1,2008-07-02T06:30:00Z,28.9818,-94.9186,4.0,2.37103353,178.3084258,3.61,'11111222,11111222,11111222' 
TABS,ioos:station:wmo:42043:1,2008-07-02T07:00:00Z,28.9818,-94.9186,4.0,2.551960031,161.4943065,3.87,'11111222,11111222,11111222' 
TABS,ioos:station:wmo:42043:1,2008-07-02T07:30:00Z,28.9818,-94.9186,4.0,2.976188838,174.0214484,4.18,'11111222,11111222,11111222' 
TABS,ioos:station:wmo:42043:1,2008-07-02T08:00:00Z,28.9818,-94.9186,4.0,3.492978672,186.5758724,4.69,'11111222,11111222,11111222' 
TABS,ioos:station:wmo:42043:1,2008-07-02T08:30:00Z,28.9818,-94.9186,4.0,3.530014164,171.3651305,4.69,'11111222,11111222,11111222' 
TABS,ioos:station:wmo:42043:1,2008-07-02T09:00:00Z,28.9818,-94.9186,4.0,3.58314108,177.6009583,4.58,'11111222,11111222,11111222' 
TABS,ioos:station:wmo:42043:1,2008-07-02T09:30:00Z,28.9818,-94.9186,4.0,3.292567387,177.7374259,4.53,'11111222,11111222,11111222' 
TABS,ioos:station:wmo:42043:1,2008-07-02T10:00:00Z,28.9818,-94.9186,4.0,3.305041603,171.6494775,4.22,'11111222,11111222,11111222' 
TABS,ioos:station:wmo:42043:1,2008-07-02T10:30:00Z,28.9818,-94.9186,4.0,2.541889061,165.4173022,3.5,'11111222,11111222,11111222' 
TABS,ioos:station:wmo:42043:1,2008-07-02T11:00:00Z,28.9818,-94.9186,4.0,2.337348926,156.286671,3.2,'11111222,11111222,11111222' 
TABS,ioos:station:wmo:42043:1,2008-07-02T11:30:00Z,28.9818,-94.9186,4.0,2.903670091,172.6794127,4.06,'11111222,11111222,11111222' 
TABS,ioos:station:wmo:42043:1,2008-07-02T12:00:00Z,28.9818,-94.9186,4.0,2.314865007,161.0956788,3.96,'11111222,11111222,11111222' 
TABS,ioos:station:wmo:42043:1,2008-07-02T12:30:00Z,28.9818,-94.9186,4.0,3.998249617,170.2080871,6.15,'11111222,11111222,11111222' 
TABS,ioos:station:wmo:42043:1,2008-07-02T13:00:00Z,28.9818,-94.9186,4.0,2.921095685,178.4308593,3.87,'11111222,11111222,11111222' 
TABS,ioos:station:wmo:42043:1,2008-07-02T13:30:00Z,28.9818,-94.9186,4.0,2.518829093,188.6771755,3.52,'11111222,11111222,11111222' 
TABS,ioos:station:wmo:42043:1,2008-07-02T14:00:00Z,28.9818,-94.9186,4.0,1.780702109,181.6092156,3.25,'11111222,11111222,11111222' 
TABS,ioos:station:wmo:42043:1,2008-07-02T14:30:00Z,28.9818,-94.9186,4.0,2.732398214,174.5400106,4.03,'11111222,11111222,11111222' 
TABS,ioos:station:wmo:42043:1,2008-07-02T15:00:00Z,28.9818,-94.9186,4.0,1.689615341,173.8847212,2.62,'11111222,11111222,11111222' 
TABS,ioos:station:wmo:42043:1,2008-07-02T15:30:00Z,28.9818,-94.9186,4.0,2.029876844,174.3458029,3.19,'11111222,11111222,11111222' 
TABS,ioos:station:wmo:42043:1,2008-07-02T16:00:00Z,28.9818,-94.9186,4.0,2.144411341,167.0657034,3.21,'11111222,11111222,11111222' 
TABS,ioos:station:wmo:42043:1,2008-07-02T16:30:00Z,28.9818,-94.9186,4.0,2.238771985,122.4126517,4.54,'11111222,11111222,11111222' 
TABS,ioos:station:wmo:42043:1,2008-07-02T17:00:00Z,28.9818,-94.9186,4.0,4.617326066,176.7722055,6.19,'11111222,11111222,11111222' 
TABS,ioos:station:wmo:42043:1,2008-07-02T17:30:00Z,28.9818,-94.9186,4.0,5.181389775,181.3272853,6.69,'11111222,11111222,11111222' 
TABS,ioos:station:wmo:42043:1,2008-07-02T18:00:00Z,28.9818,-94.9186,4.0,5.121650125,181.4546702,6.71,'11111222,11111222,11111222' 
TABS,ioos:station:wmo:42043:1,2008-07-02T18:30:00Z,28.9818,-94.9186,4.0,10.80992137,223.2008337,15.92,'11111222,11111222,11111222' 
TABS,ioos:station:wmo:42043:1,2008-07-02T19:00:00Z,28.9818,-94.9186,4.0,7.408657098,235.5592689,9.15,'11111222,11111222,11111222' 
TABS,ioos:station:wmo:42043:1,2008-07-02T19:30:00Z,28.9818,-94.9186,4.0,7.068988612,229.9350796,8.7,'11111222,11111222,11111222' 
TABS,ioos:station:wmo:42043:1,2008-07-02T20:00:00Z,28.9818,-94.9186,4.0,7.314984621,223.2274982,8.69,'11111222,11111222,11111222' 
TABS,ioos:station:wmo:42043:1,2008-07-02T20:30:00Z,28.9818,-94.9186,4.0,6.784570731,233.8733687,8.64,'11111222,11111222,11111222' 
TABS,ioos:station:wmo:42043:1,2008-07-02T21:00:00Z,28.9818,-94.9186,4.0,6.188578189,214.6660056,7.76,'11111222,11111222,11111222' 
TABS,ioos:station:wmo:42043:1,2008-07-02T21:30:00Z,28.9818,-94.9186,4.0,5.374430202,216.1450692,7.54,'11111222,11111222,11111222' 
TABS,ioos:station:wmo:42043:1,2008-07-02T22:00:00Z,28.9818,-94.9186,4.0,4.326811759,213.2127465,5.91,'11111222,11111222,11111222' 
TABS,ioos:station:wmo:42043:1,2008-07-02T22:30:00Z,28.9818,-94.9186,4.0,3.177703573,200.8305493,4.0,'11111222,11111222,11111222' 
TABS,ioos:station:wmo:42043:1,2008-07-02T23:00:00Z,28.9818,-94.9186,4.0,2.548666318,184.7265027,3.44,'11111222,11111222,11111222' 
TABS,ioos:station:wmo:42043:1,2008-07-02T23:30:00Z,28.9818,-94.9186,4.0,3.768089702,167.5868808,5.25,'11111222,11111222,11111222' 
TABS,ioos:station:wmo:42043:1,2008-07-03T00:00:00Z,28.9818,-94.9186,4.0,4.581800956,170.5790267,5.68,'11111222,11111222,11111222' 
TABS,ioos:station:wmo:42043:1,2008-07-03T00:30:00Z,28.9818,-94.9186,4.0,4.601086828,174.5126662,5.93,'11111222,11111222,11111222' 
TABS,ioos:station:wmo:42043:1,2008-07-03T01:00:00Z,28.9818,-94.9186,4.0,5.146571674,182.8959657,6.61,'11111222,11111222,11111222' 
TABS,ioos:station:wmo:42043:1,2008-07-03T01:30:00Z,28.9818,-94.9186,4.0,3.840637968,181.0445467,5.22,'11111222,11111222,11111222' 
TABS,ioos:station:wmo:42043:1,2008-07-03T02:00:00Z,28.9818,-94.9186,4.0,3.971347378,184.3325143,5.31,'11111222,11111222,11111222' 
TABS,ioos:station:wmo:42043:1,2008-07-03T02:30:00Z,28.9818,-94.9186,4.0,3.980113064,179.5683419,5.47,'11111222,11111222,11111222' 
TABS,ioos:station:wmo:42043:1,2008-07-03T03:00:00Z,28.9818,-94.9186,4.0,3.220388175,179.110598,4.66,'11111222,11111222,11111222' 
TABS,ioos:station:wmo:42043:1,2008-07-03T03:30:00Z,28.9818,-94.9186,4.0,2.801446055,178.1591986,3.92,'11111222,11111222,11111222' 
TABS,ioos:station:wmo:42043:1,2008-07-03T04:00:00Z,28.9818,-94.9186,4.0,2.372551369,199.962638,3.47,'11111222,11111222,11111222' 
TABS,ioos:station:wmo:42043:1,2008-07-03T04:30:00Z,28.9818,-94.9186,4.0,3.218850727,165.0573622,4.64,'11111222,11111222,11111222' 
TABS,ioos:station:wmo:42043:1,2008-07-03T05:00:00Z,28.9818,-94.9186,4.0,3.523024269,159.0444827,4.72,'11111222,11111222,11111222' 
TABS,ioos:station:wmo:42043:1,2008-07-03T05:30:00Z,28.9818,-94.9186,4.0,3.682417684,157.8232429,4.97,'11111222,11111222,11111222' 
TABS,ioos:station:wmo:42043:1,2008-07-03T06:00:00Z,28.9818,-94.9186,4.0,4.419015728,166.1212323,5.93,'11111222,11111222,11111222' 
TABS,ioos:station:wmo:42043:1,2008-07-03T06:30:00Z,28.9818,-94.9186,4.0,3.68708557,168.2636426,5.24,'11111222,11111222,11111222' 
TABS,ioos:station:wmo:42043:1,2008-07-03T07:00:00Z,28.9818,-94.9186,4.0,4.022735388,160.8446428,5.77,'11111222,11111222,11111222' 
TABS,ioos:station:wmo:42043:1,2008-07-03T07:30:00Z,28.9818,-94.9186,4.0,4.925373082,160.0569048,6.06,'11111222,11111222,11111222' 
TABS,ioos:station:wmo:42043:1,2008-07-03T08:00:00Z,28.9818,-94.9186,4.0,5.244158655,168.561743,7.04,'11111222,11111222,11111222' 
TABS,ioos:station:wmo:42043:1,2008-07-03T08:30:00Z,28.9818,-94.9186,4.0,5.307372231,167.9281013,6.69,'11111222,11111222,11111222' 
TABS,ioos:station:wmo:42043:1,2008-07-03T09:00:00Z,28.9818,-94.9186,4.0,4.923454072,174.4054261,6.55,'11111222,11111222,11111222' 
TABS,ioos:station:wmo:42043:1,2008-07-03T09:30:00Z,28.9818,-94.9186,4.0,5.137012751,159.1309115,6.78,'11111222,11111222,11111222' 
TABS,ioos:station:wmo:42043:1,2008-07-03T10:00:00Z,28.9818,-94.9186,4.0,4.328232896,159.7230974,5.38,'11111222,11111222,11111222' 
TABS,ioos:station:wmo:42043:1,2008-07-03T10:30:00Z,28.9818,-94.9186,4.0,4.185164274,168.421817,5.66,'11111222,11111222,11111222' 
TABS,ioos:station:wmo:42043:1,2008-07-03T11:00:00Z,28.9818,-94.9186,4.0,4.070110564,171.9497597,5.51,'11111222,11111222,11111222' 
TABS,ioos:station:wmo:42043:1,2008-07-03T11:30:00Z,28.9818,-94.9186,4.0,4.075929342,174.9330606,5.6,'11111222,11111222,11111222' 
TABS,ioos:station:wmo:42043:1,2008-07-03T12:00:00Z,28.9818,-94.9186,4.0,3.669945504,175.781125,4.9,'11111222,11111222,11111222' 
TABS,ioos:station:wmo:42043:1,2008-07-03T12:30:00Z,28.9818,-94.9186,4.0,3.416577235,163.1564413,4.72,'11111222,11111222,11111222' 
TABS,ioos:station:wmo:42043:1,2008-07-03T13:00:00Z,28.9818,-94.9186,4.0,2.979345566,137.3126603,4.5,'11111222,11111222,11111222' 
TABS,ioos:station:wmo:42043:1,2008-07-03T13:30:00Z,28.9818,-94.9186,4.0,3.1219385,152.5323562,4.53,'11111222,11111222,11111222' 
TABS,ioos:station:wmo:42043:1,2008-07-03T14:00:00Z,28.9818,-94.9186,4.0,2.583118271,137.3536071,3.66,'11111222,11111222,11111222' 
TABS,ioos:station:wmo:42043:1,2008-07-03T14:30:00Z,28.9818,-94.9186,4.0,1.977397279,149.2849881,3.22,'11111222,11111222,11111222' 
TABS,ioos:station:wmo:42043:1,2008-07-03T15:00:00Z,28.9818,-94.9186,4.0,2.345570293,159.0153617,3.36,'11111222,11111222,11111222' 
TABS,ioos:station:wmo:42043:1,2008-07-03T15:30:00Z,28.9818,-94.9186,4.0,2.351361308,159.3301355,3.56,'11111222,11111222,11111222' 
TABS,ioos:station:wmo:42043:1,2008-07-03T16:00:00Z,28.9818,-94.9186,4.0,1.802470527,149.3091011,2.81,'11111222,11111222,11111222' 
TABS,ioos:station:wmo:42043:1,2008-07-03T16:30:00Z,28.9818,-94.9186,4.0,2.789283062,158.7710265,4.02,'11111222,11111222,11111222' 
TABS,ioos:station:wmo:42043:1,2008-07-03T17:00:00Z,28.9818,-94.9186,4.0,3.170646622,159.5076636,4.4,'11111222,11111222,11111222' 
TABS,ioos:station:wmo:42043:1,2008-07-03T17:30:00Z,28.9818,-94.9186,4.0,3.277315975,160.0171507,4.4,'11111222,11111222,11111222' 
TABS,ioos:station:wmo:42043:1,2008-07-03T18:00:00Z,28.9818,-94.9186,4.0,3.094672842,150.3702195,4.3,'11111222,11111222,11111222' 
TABS,ioos:station:wmo:42043:1,2008-07-03T18:30:00Z,28.9818,-94.9186,4.0,3.68126337,152.3214731,4.94,'11111222,11111222,11111222' 
TABS,ioos:station:wmo:42043:1,2008-07-03T19:00:00Z,28.9818,-94.9186,4.0,4.626024211,156.4276233,5.79,'11111222,11111222,11111222' 
TABS,ioos:station:wmo:42043:1,2008-07-03T19:30:00Z,28.9818,-94.9186,4.0,4.314498812,164.1278167,5.8,'11111222,11111222,11111222' 
TABS,ioos:station:wmo:42043:1,2008-07-03T20:00:00Z,28.9818,-94.9186,4.0,6.490624007,179.2057147,8.69,'11111222,11111222,11111222' 
TABS,ioos:station:wmo:42043:1,2008-07-03T20:30:00Z,28.9818,-94.9186,4.0,5.352102391,178.3942112,7.15,'11111222,11111222,11111222' 
TABS,ioos:station:wmo:42043:1,2008-07-03T21:00:00Z,28.9818,-94.9186,4.0,5.79007772,179.7033445,7.28,'11111222,11111222,11111222' 
TABS,ioos:station:wmo:42043:1,2008-07-03T21:30:00Z,28.9818,-94.9186,4.0,5.711969888,181.5050039,7.31,'11111222,11111222,11111222' 
TABS,ioos:station:wmo:42043:1,2008-07-03T22:00:00Z,28.9818,-94.9186,4.0,5.187446385,187.7554094,6.75,'11111222,11111222,11111222' 
TABS,ioos:station:wmo:42043:1,2008-07-03T22:30:00Z,28.9818,-94.9186,4.0,5.006845314,191.287674,6.92,'11111222,11111222,11111222' 
TABS,ioos:station:wmo:42043:1,2008-07-03T23:00:00Z,28.9818,-94.9186,4.0,6.328609642,177.0112219,8.14,'11111222,11111222,11111222' 
TABS,ioos:station:wmo:42043:1,2008-07-03T23:30:00Z,28.9818,-94.9186,4.0,7.239399146,172.060403,9.91,'11111222,11111222,11111222' 
TABS,ioos:station:wmo:42043:1,2008-07-04T00:00:00Z,28.9818,-94.9186,4.0,6.890486195,176.8388375,8.73,'11111222,11111222,11111222' 
TABS,ioos:station:wmo:42043:1,2008-07-04T00:30:00Z,28.9818,-94.9186,4.0,7.196867374,186.5425961,9.74,'11111222,11111222,11111222' 
TABS,ioos:station:wmo:42043:1,2008-07-04T01:00:00Z,28.9818,-94.9186,4.0,6.547617887,184.2042742,8.81,'11111222,11111222,11111222' 
TABS,ioos:station:wmo:42043:1,2008-07-04T01:30:00Z,28.9818,-94.9186,4.0,6.49150984,181.2359803,8.16,'11111222,11111222,11111222' 
TABS,ioos:station:wmo:42043:1,2008-07-04T02:00:00Z,28.9818,-94.9186,4.0,6.78,180.0002105,8.65,'11111222,11111222,11111222' 
TABS,ioos:station:wmo:42043:1,2008-07-04T02:30:00Z,28.9818,-94.9186,4.0,6.381222453,175.3260577,8.41,'11111222,11111222,11111222' 
TABS,ioos:station:wmo:42043:1,2008-07-04T03:00:00Z,28.9818,-94.9186,4.0,5.01367131,184.2323744,6.51,'11111222,11111222,11111222' 
TABS,ioos:station:wmo:42043:1,2008-07-04T03:30:00Z,28.9818,-94.9186,4.0,3.521718331,181.7901169,4.7,'11111222,11111222,11111222' 
TABS,ioos:station:wmo:42043:1,2008-07-04T04:00:00Z,28.9818,-94.9186,4.0,4.248870438,185.402175,5.93,'11111222,11111222,11111222' 
TABS,ioos:station:wmo:42043:1,2008-07-04T04:30:00Z,28.9818,-94.9186,4.0,3.606799135,193.3043713,5.14,'11111222,11111222,11111222' 
TABS,ioos:station:wmo:42043:1,2008-07-04T05:00:00Z,28.9818,-94.9186,4.0,3.647793854,191.0636851,4.88,'11111222,11111222,11111222' 
TABS,ioos:station:wmo:42043:1,2008-07-04T05:30:00Z,28.9818,-94.9186,4.0,3.081038786,178.5123464,5.0,'11111222,11111222,11111222' 
TABS,ioos:station:wmo:42043:1,2008-07-04T06:00:00Z,28.9818,-94.9186,4.0,3.47023054,180.6606497,4.82,'11111222,11111222,11111222' 
TABS,ioos:station:wmo:42043:1,2008-07-04T06:30:00Z,28.9818,-94.9186,4.0,3.137036818,183.8385748,4.26,'11111222,11111222,11111222' 
TABS,ioos:station:wmo:42043:1,2008-07-04T07:00:00Z,28.9818,-94.9186,4.0,2.973247383,191.8392169,4.21,'11111222,11111222,11111222' 
TABS,ioos:station:wmo:42043:1,2008-07-04T07:30:00Z,28.9818,-94.9186,4.0,3.903255052,197.1352759,5.48,'11111222,11111222,11111222' 
TABS,ioos:station:wmo:42043:1,2008-07-04T08:00:00Z,28.9818,-94.9186,4.0,3.807466349,198.0544198,5.25,'11111222,11111222,11111222' 
TABS,ioos:station:wmo:42043:1,2008-07-04T08:30:00Z,28.9818,-94.9186,4.0,5.765318725,175.8225564,7.44,'11111222,11111222,11111222' 
TABS,ioos:station:wmo:42043:1,2008-07-04T09:00:00Z,28.9818,-94.9186,4.0,2.534758371,284.8585797,3.91,'11111222,11111222,11111222' 
TABS,ioos:station:wmo:42043:1,2008-07-04T09:30:00Z,28.9818,-94.9186,4.0,1.314724306,291.8822845,2.26,'11111222,11111222,11111222' 
TABS,ioos:station:wmo:42043:1,2008-07-04T10:00:00Z,28.9818,-94.9186,4.0,1.006578363,159.0444827,1.85,'11111222,11111222,11111222' 
TABS,ioos:station:wmo:42043:1,2008-07-04T10:30:00Z,28.9818,-94.9186,4.0,3.110257224,179.2633296,5.96,'11111222,11111222,11111222' 
TABS,ioos:station:wmo:42043:1,2008-07-04T11:00:00Z,28.9818,-94.9186,4.0,5.001199856,193.6474169,6.14,'11111222,11111222,11111222' 
TABS,ioos:station:wmo:42043:1,2008-07-04T11:30:00Z,28.9818,-94.9186,4.0,4.712472812,194.1248857,5.89,'11111222,11111222,11111222' 
TABS,ioos:station:wmo:42043:1,2008-07-04T12:00:00Z,28.9818,-94.9186,4.0,3.710053908,179.691342,5.21,'11111222,11111222,11111222' 
TABS,ioos:station:wmo:42043:1,2008-07-04T12:30:00Z,28.9818,-94.9186,4.0,4.089608783,185.6132065,5.54,'11111222,11111222,11111222' 
TABS,ioos:station:wmo:42043:1,2008-07-04T13:00:00Z,28.9818,-94.9186,4.0,3.457311094,189.4897553,4.77,'11111222,11111222,11111222' 
TABS,ioos:station:wmo:42043:1,2008-07-04T13:30:00Z,28.9818,-94.9186,4.0,3.990613988,181.0052941,5.29,'11111222,11111222,11111222' 
TABS,ioos:station:wmo:42043:1,2008-07-04T14:00:00Z,28.9818,-94.9186,4.0,3.902512012,182.0560944,5.3,'11111222,11111222,11111222' 
TABS,ioos:station:wmo:42043:1,2008-07-04T14:30:00Z,28.9818,-94.9186,4.0,4.022461933,172.7162038,5.12,'11111222,11111222,11111222' 
TABS,ioos:station:wmo:42043:1,2008-07-04T15:00:00Z,28.9818,-94.9186,4.0,2.922618689,166.3443803,4.21,'11111222,11111222,11111222' 
TABS,ioos:station:wmo:42043:1,2008-07-04T15:30:00Z,28.9818,-94.9186,4.0,3.375203698,148.5707183,4.66,'11111222,11111222,11111222' 
TABS,ioos:station:wmo:42043:1,2008-07-04T16:00:00Z,28.9818,-94.9186,4.0,3.903088521,147.4502831,5.01,'11111222,11111222,11111222' 
TABS,ioos:station:wmo:42043:1,2008-07-04T16:30:00Z,28.9818,-94.9186,4.0,3.867932264,160.6752559,5.41,'11111222,11111222,11111222' 
TABS,ioos:station:wmo:42043:1,2008-07-04T17:00:00Z,28.9818,-94.9186,4.0,13.22157706,201.9866526,16.42,'11111222,11111222,11111222' 
TABS,ioos:station:wmo:42043:1,2008-07-04T17:30:00Z,28.9818,-94.9186,4.0,7.690416114,192.0845323,10.16,'11111222,11111222,11111222' 
TABS,ioos:station:wmo:42043:1,2008-07-04T18:00:00Z,28.9818,-94.9186,4.0,2.395704489,188.4008734,3.54,'11111222,11111222,11111222' 
TABS,ioos:station:wmo:42043:1,2008-07-04T18:30:00Z,28.9818,-94.9186,4.0,4.249470555,205.3591536,5.57,'11111222,11111222,11111222' 